Regional Weather Roundup
Issued by NWS

Home | Current Version | Previous Version | Text Only | Print | Product List | Glossary On
Versions: 1 2 3 4 5 6 7 8 9 10 11 12 13 14 15 16 17 18 19 20 21 22 23 24 25 26 27 28 29 30 31 32 33 34 35 36 37 38 39 40 41 42 43 44 45 46 47 48 49 50
000
ASUS43 KTOP 090559
RWRKS

WEATHER ROUNDUP FOR KANSAS
NATIONAL WEATHER SERVICE GOODLAND KS
1200 AM CST FRI DEC 09 2016

NOTE:  "FAIR" INDICATES FEW OR NO CLOUDS BELOW 12,000 FEET WITH NO
SIGNIFICANT WEATHER AND/OR OBSTRUCTIONS TO VISIBILITY.

KSZ001>006-013>018-027>032-041>047-090700-
NORTHWEST KANSAS

CITY           SKY/WX    TMP DP  RH WIND       PRES   REMARKS
GOODLAND       CLOUDY     7   1  76 S9        30.39F
6HR MIN TEMP:   2; 6HR MAX TEMP:  10;

HAYS           CLOUDY     7   3  84 CALM      30.60F
HILL CITY      CLOUDY     2  -2  83 CALM      30.58F
6HR MIN TEMP:   0; 6HR MAX TEMP:  11;

RUSSELL        CLOUDY     8   4  83 SW6       30.60F
6HR MIN TEMP:   8; 6HR MAX TEMP:  17;

$$

KSZ061>065-074>080-084>089-090700-
SOUTHWEST KANSAS

CITY           SKY/WX    TMP DP  RH WIND       PRES   REMARKS
DODGE CITY     CLOUDY    19  11  70 SE3       30.55S
6HR MIN TEMP:  12; 6HR MAX TEMP:  19;

ELKHART          N/A     20   0  42 S10         N/A  WCI   9
GARDEN CITY    CLOUDY    19   6  57 SE8       30.51S
6HR MIN TEMP:  18; 6HR MAX TEMP:  20;

GREAT BEND     CLOUDY     9   4  80 CALM      30.62S
LIBERAL        CLOUDY    23   3  42 SE9       30.51F
$$

KSZ066>073-081>083-090>101-090700-
SOUTHEAST KANSAS

CITY           SKY/WX    TMP DP  RH WIND       PRES   REMARKS
CHANUTE        CLEAR     16  10  77 NW5       30.67S
6HR MIN TEMP:  15; 6HR MAX TEMP:  23;

COFFEYVILLE    CLEAR     18  11  74 NW3       30.70S
6HR MIN TEMP:  18; 6HR MAX TEMP:  24;

HUTCHINSON     CLEAR     13   8  81 CALM      30.65R
6HR MIN TEMP:  10; 6HR MAX TEMP:  22;

MEDICINE LODGE   N/A     10   5  80 N3        30.64S
NEWTON         CLEAR     15   9  76 NW3       30.64S
PARSONS        CLEAR     12  10  92 N3        30.69S
6HR MIN TEMP:  12; 6HR MAX TEMP:  23;

WICHITA INTL   CLEAR     17   9  70 CALM      30.65S
6HR MIN TEMP:  16; 6HR MAX TEMP:  24;

WICHITA JABRA  CLEAR     16   9  74 N3        30.64F
6HR MIN TEMP:  15; 6HR MAX TEMP:  18;

WICHITA MCCONL CLEAR     17   8  68 N3        30.65S
WINFIELD       CLEAR     18  10  71 E3        30.67S
6HR MIN TEMP:  17; 6HR MAX TEMP:  21;

$$

KSZ007>012-019>026-033>040-048>060-102>105-090700-
NORTHEAST KANSAS

CITY           SKY/WX    TMP DP  RH WIND       PRES   REMARKS
CONCORDIA      CLEAR     12   7  80 W7        30.64S
6HR MIN TEMP:  12; 6HR MAX TEMP:  21;

EMPORIA        CLEAR     13   9  84 W5        30.65S
6HR MIN TEMP:  13; 6HR MAX TEMP:  20;

LAWRENCE       CLEAR      9   6  88 NW6       30.67S
6HR MIN TEMP:   9; 6HR MAX TEMP:  20;

MANHATTAN      CLEAR     12   7  80 SW3       30.68R
6HR MIN TEMP:  11; 6HR MAX TEMP:  21;

OLATHE IND     CLEAR     16   9  74 W3        30.65S
6HR MIN TEMP:  15; 6HR MAX TEMP:  20;

OLATHE EXE     CLEAR     16   9  74 W3        30.64S
6HR MIN TEMP:  16; 6HR MAX TEMP:  21;

SALINA         CLEAR     14   7  73 N5        30.66F
6HR MIN TEMP:  13; 6HR MAX TEMP:  20;

TOPEKA BILLARD CLEAR     15   9  76 W5        30.67S
6HR MIN TEMP:  14; 6HR MAX TEMP:  22;

TOPEKA FORBES  CLEAR     13   7  77 NW6       30.65S
6HR MIN TEMP:  12; 6HR MAX TEMP:  20;

$$




USA.gov is the U.S. government's official web portal to all federal, state and local government web resources and services.